This is the latest recevied weather packets stored in our database for station/object JF7BTK-10. If no packets are shown the sender has not sent any weather packets the latest 10 day(s).
| Time | Temp. | Humidity | Pressure | Rain* | Wind** | Luminosity | Snow |
|---|---|---|---|---|---|---|---|
| 1788162186 | 73° F | 76% | 758.4 mmHg | 0 in | - | - | - |
| 1788161287 | 74° F | 74% | 758.3 mmHg | 0 in | - | - | - |
| 1788160388 | 75° F | 72% | 758.2 mmHg | 0 in | - | - | - |
| 1788159487 | 76° F | 71% | 758 mmHg | 0 in | - | - | - |
| 1788158587 | 77° F | 68% | 758 mmHg | 0 in | - | - | - |
| 1788157688 | 79° F | 68% | 757.7 mmHg | 0 in | - | - | - |
| 1788156788 | 78° F | 69% | 757.7 mmHg | 0 in | - | - | - |
| 1788155886 | 78° F | 69% | 757.7 mmHg | 0 in | - | - | - |
| 1788154987 | 78° F | 66% | 757.6 mmHg | 0 in | - | - | - |
| 1788154087 | 79° F | 66% | 757.6 mmHg | 0 in | - | - | - |
| 1788153188 | 79° F | 65% | 757.6 mmHg | 0 in | - | - | - |
| 1788152288 | 81° F | 62% | 757.8 mmHg | 0 in | - | - | - |
| 1788151388 | 80° F | 65% | 757.8 mmHg | 0 in | - | - | - |
| 1788150488 | 80° F | 62% | 757.9 mmHg | 0 in | - | - | - |
| 1788149588 | 81° F | 62% | 757.7 mmHg | 0 in | - | - | - |
| 1788148688 | 80° F | 62% | 757.9 mmHg | 0 in | - | - | - |
| 1788147788 | 80° F | 63% | 757.7 mmHg | 0 in | - | - | - |
| 1788146887 | 79° F | 65% | 757.7 mmHg | 0 in | - | - | - |
| 1788145988 | 79° F | 63% | 757.7 mmHg | 0 in | - | - | - |
| 1788145087 | 79° F | 63% | 757.8 mmHg | 0 in | - | - | - |
| 1788144188 | 79° F | 64% | 757.7 mmHg | 0 in | - | - | - |
| 1788143288 | 79° F | 63% | 757.7 mmHg | 0 in | - | - | - |
| 1788142388 | 78° F | 66% | 757.9 mmHg | 0 in | - | - | - |
| 1788141487 | 77° F | 66% | 757.7 mmHg | 0 in | - | - | - |
| 1788140587 | 76° F | 69% | 757.6 mmHg | 0 in | - | - | - |
* Rain latest hour (hover to see other rain measurements)
** Current wind speed in m/s (hover to see current wind gust speed)